Regional Weather Roundup
Issued by NWS

Home | Current Version | Previous Version | Graphics & Text | Print | Product List | Glossary On
Versions: 1 2 3 4 5 6 7 8 9 10 11 12 13 14 15 16 17 18 19 20 21 22 23 24 25 26 27 28
000
ASUS45 KTFX 261710
RWRMT
MONTANA REGIONAL WEATHER ROUNDUP
NATIONAL WEATHER SERVICE GREAT FALLS MT
1100 AM MDT TUE JUL 26 2016

NOTE: "FAIR" INDICATES FEW OR NO CLOUDS BELOW 12000 FEET WITH NO
SIGNIFICANT WEATHER AND/OR OBSTRUCTIONS TO VISIBILITY.

MTZ001>007-043-261800-
WEST OF THE DIVIDE

CITY           SKY/WX    TMP DP  RH WIND       PRES   REMARKS
KALISPELL      PTSUNNY   75  53  46 N13       30.07S
MISSOULA       SUNNY     75  46  35 CALM      30.10S
BUTTE          SUNNY     74  36  25 VRB3      30.21F
MULLAN PASS    SUNNY     70  48  45 VRB3      30.24R
ANACONDA         N/A     73  48  40 NE5       30.16F
DEER LODGE       N/A     66  52  59 N3        30.19F
EUREKA           N/A     68  54  60 W9        30.15R
HAMILTON         N/A     72  46  40 CALM      30.10F
LIBBY            N/A     75  54  46 N6        30.10R
PLAINS           N/A     79  49  34 CALM      30.05F
RONAN            N/A     79  51  37 CALM      30.11S
THOMPSON FALLS   N/A     77  53  43 W2        30.08F
$$

MTZ008-052>055-261800-
SOUTHWEST MONTANA

CITY           SKY/WX    TMP DP  RH WIND       PRES   REMARKS
BOZEMAN        SUNNY     77  47  34 CALM      30.16F
DILLON         SUNNY     73  44  35 CALM      30.17F
W YELLOWSTONE  SUNNY     72  37  28 CALM      30.29F
ENNIS          SUNNY     79  37  22 CALM      30.23S
THREE FORKS      N/A     75  16  11 CALM      30.13S
TWIN BRIDGES     N/A     73  45  36 S5        30.14F
$$

MTZ009-010-012-014-046-048-049-054-261800-
EAST SLOPES AND CENTRAL MONTANA

CITY           SKY/WX    TMP DP  RH WIND       PRES   REMARKS
CUT BANK       CLOUDY    77  53  43 SE8       30.10F
GREAT FALLS    SUNNY     77  51  40 E7        30.10F
MALMSTROM AFB  SUNNY     78  52  41 SE5       30.10F
HELENA         SUNNY     74  52  46 CALM      30.12S
CHOTEAU          N/A     75  55  50 VRB5      30.14S
CONRAD           N/A     78  60  53 E3        30.12S
$$

MTZ011-013-016-021-045-047-050-051-261800-
NORTH CENTRAL MONTANA

CITY           SKY/WX    TMP DP  RH WIND       PRES   REMARKS
HAVRE          SUNNY     78  60  53 E14       30.05F
LEWISTOWN      SUNNY     76  52  43 N3        30.13F
N BAR RANCH      N/A     79  46  31 VRB6      30.16S
CHINOOK          N/A     75  61  60 E8        30.06S
$$

MTZ017>020-022>027-061-062-261800-
NORTHEAST MONTANA

CITY           SKY/WX    TMP DP  RH WIND       PRES   REMARKS
GLASGOW        MOSUNNY   76  60  57 E15G21    30.07R
JORDAN           N/A     80  56  43 SE15G21   30.07F
SIDNEY         CLOUDY    69  64  84 NE7       30.07R
WOLF POINT     PTSUNNY   78  60  53 E10       30.08R
PLENTYWOOD       N/A     70  57  64 NE10      30.10S
POPLAR           N/A     73  61  64 E10G16    30.09R
SCOBEY           N/A     74  52  46 NE13      30.10R
$$

MTZ028>42-056>058-261800-
SOUTHCENTRAL AND SOUTHEAST MONTANA

CITY           SKY/WX    TMP DP  RH WIND       PRES   REMARKS
BAKER          CLOUDY    74  59  59 E14       30.08S
BILLINGS       MOSUNNY   81  50  33 S5        30.10S
LIVINGSTON     SUNNY     79  46  31 NE3       30.15S
MILES CITY     SUNNY     82  52  35 VRB3      30.06S
EKALAKA          N/A     71  60  68 N7        30.07F
FORSYTH          N/A     81  55  41 SE12      30.06S
LAUREL           N/A     81  49  32 E5        30.09S
ROUNDUP          N/A     79  50  36 S3        30.01S
$$

REGIONAL REPORTS...DAKOTAS

CITY           SKY/WX    TMP DP  RH WIND       PRES   REMARKS
WILLISTON      CLOUDY    76  62  62 N7        30.08R
MINOT          CLOUDY    81  66  60 NW8       30.05R
DICKINSON      CLOUDY    67  63  87 N8        30.02F
CROSBY         PTSUNNY   68  64  88 NE3       30.12F
WATFORD CITY     N/A    N/A N/A N/A MISG        N/A
BISMARCK       CLOUDY    75  67  76 W16       30.06R
GRAND FORKS    MOSUNNY   83  65  54 NE9       29.95F
FARGO          CLOUDY    76  66  71 SW7       29.97R
BUFFALO SD       N/A     69  63  81 N14       29.98R
RAPID CITY     MOSUNNY   76  59  55 S9        30.05S
$$

REGIONAL REPORTS...WYOMING/IDAHO/WASHINGTON

CITY           SKY/WX    TMP DP  RH WIND       PRES   REMARKS
GILLETTE       SUNNY     78  54  43 VRB3      30.12S
SHERIDAN       SUNNY     83  46  27 SE5       30.10F
BUFFALO WY     SUNNY     81  44  27 VRB7      30.18F
CODY           SUNNY     79  45  29 N8        30.18R
YELLOWSTONE LA   N/A     62  38  40 E5        30.40S
IDAHO FALLS    SUNNY     80  46  30 NW8       30.13F
SALMON         SUNNY     72  43  35 E3        30.11F
BOISE          SUNNY     84  42  22 W7        30.01S
SPOKANE        PTSUNNY   76  52  43 VRB6      30.06S
$$

REGIONAL REPORTS...ALBERTA

CITY           SKY/WX    TMP DP  RH WIND       PRES   REMARKS
EDMONTON       MOSUNNY   70  57  64 SW6       30.07S
CALGARY        PTSUNNY   70  55  60 N8        30.12R
LETHBRIDGE     MOSUNNY   72  61  68 SE5       30.08S
MEDICINE HAT   PTSUNNY   82  59  44 E5        30.07R
WATERTON GATE    N/A     72  57  60 N6          N/A
MILK RIVER       N/A     77  59  53 S3          N/A
ONEFOUR          N/A     79  55  44 SE12        N/A
$$

REGIONAL REPORTS...SASKATCHEWAN

CITY           SKY/WX    TMP DP  RH WIND       PRES   REMARKS
SWIFT CURRENT  CLOUDY    70  57  64 SE9       30.12R
REGINA         PTSUNNY   75  54  46 NE5       30.11S
SASKATOON      PTSUNNY   75  50  41 E9        30.14R
CYPRESS HILLS    N/A     64  55  72 SE8         N/A
VAL MARIE        N/A     72  54  53 E16G24      N/A
ROCKGLEN         N/A     59  55  88 E2          N/A
ASSINIBOIA       N/A     73  57  56 S5          N/A
$$




USA.gov is the U.S. government's official web portal to all federal, state and local government web resources and services.